STARLINK-1376, 45570

Orbit data source: Space-Track

STARLINK-1376, 45570 is a payload satellite owned by SpaceX/Seattle (US) in LEO that was launched on Wed, 22 Apr 2020 UTC via an FALCON 9 launch vehicle from the Air Force Eastern Test Range (AFETR). Payload-class satellites include a variety of spacecraft equipped with specific instruments for various scientific and technological missions. These include communications satellites like Starlink; space stations such as the ISS; scientific satellites like the Hubble; Earth observation satellites from companies like Planet Labs, Umbra, and HawkEye 360; GPS; miniature CubeSats for education and research; and military/defense satellites.

Loading next visibility...
Identifier
45570, 2020-025AR
Orbit
LEO
Last TLE update
21 hours ago
Origin
Manufacturer
SpaceX/Seattle
Mission
Operational Commercial Communications
Bus & Motor
STARLINK, Unknown motor
Mass
260 kg wet, ~248 kg dry
Launch date (UTC)
2020-04-22 (5 years ago)
Launch vehicle
FALCON 9
Launch site
Air Force Eastern Test Range (AFETR)
Object type
Payload
Rocket body
Debris
Shape & HBR
Box + 1 Pan, 8.86 m
Radar Cross Section
13.562 m², Large (>1 m²)

Expand to show TLE details & history

TLE from 21 hours ago
0 STARLINK-1376
1 45570U 20025AR  25128.42624599  .00002707  00000-0  20060-3 0  9996
2 45570  53.0558  16.9964 0001630  79.9032 280.2141 15.06393831279357
Epoch: 2025-05-08T10:13Z
Definitive object data (Epoch: 2025-05-08T10:13:47.653Z)
Latitude
-0.00001°
Longitude
-2.94908°
Altitude
547.91 km
Speed
7.589 km/s
True Right ascension
01h 07m 59s
True Declination
0° 00' 00"
Sunlit
Object was in daylight at TLE epoch
Visualization TLE readout
Latitude
16.23527°
Longitude
5.74024°
Altitude
546.9 km
Speed
7.591 km/s
Apparent Right ascension
02h 19m 43s
Apparent Declination
-10° 42' 45"
Sunlit
Object is in daylight
Visualization observer readout
Local Sidereal Time
15:10:08
Azimuth
24.392° NE
Elevation
-58.731°
Doppler factor
1
Orbital elements
Apogee altitude
548.63 km
Perigee altitude
546.372 km
Semi-major axis
6,925.638 km
Eccentricity
0.000163
Inclination
53.0558°
RAAN
16.9964°
Arg. of periapsis
79.9032°
True anomaly
280.19572°
Mean anomaly
280.2141°
Eccentric anomaly
280.20491°
Mean motion
3.76577 °/min
BSTAR
0.0002006
Orbital period
95.6 mins
Loading maneuver chart data...
Loading SW <> Apogee altitude chart data...
Loading historical data...
Loading historical data...
Loading historical data...
Loading historical data...
Loading historical data...
Loading historical data...
Loading historical data...

STARLINK-1376 Visibility forecast

Observer location: undefined°, undefined°

Span
Click to sort rows by Start time (UTC) header in descending order
Start Az.
Max El. time (UTC)
Max El. Az.
Max El.
End time (UTC)
End Az.
7 mins2025-05-09 18:13:12.441Z194.319° SSW2025-05-09 18:17:12.441Z119.815° SE27.199°2025-05-09 18:20:12.441Z70.167° E
5 mins2025-05-09 19:54:12.441Z273.237° WNW2025-05-09 19:56:12.441Z325.81° NNW32.054°2025-05-09 19:59:12.441Z32.388° NE
5 mins2025-05-10 00:56:12.441Z340.542° N2025-05-10 00:58:12.441Z34.839° NE30.65°2025-05-10 01:01:12.441Z94.701° ESE
6 mins2025-05-10 02:35:12.441Z282.587° WNW2025-05-10 02:37:12.441Z240.634° WSW29.02°2025-05-10 02:41:12.441Z162.924° S
|